FW0954 Weather Reports


time (UTC)temp
C
wind
direction
speed
KPH
gust
KPH
rain 1hr
cm
rain 24hr
cm
rain mn
cm
humidity
%
barometer
mb
20260507085503 12 0 0.0 0.0 0.00 0.00 0.00 89 1017.9
20260507084503 12 128 0.0 1.6 0.00 0.00 0.00 88 1017.7
20260507084002 12 128 0.0 1.6 0.00 0.00 0.00 88 1017.7
20260507083503 12 128 0.0 1.6 0.00 0.00 0.00 88 1017.6
20260507083003 12 128 0.0 1.6 0.00 0.00 0.00 89 1017.7
20260507082503 12 121 0.0 3.2 0.00 0.00 0.00 88 1017.7
20260507082004 12 121 0.0 3.2 0.00 0.00 0.00 88 1017.6
20260507081503 13 51 0.0 1.6 0.00 0.00 0.00 88 1017.6
20260507081004 13 50 0.0 1.6 0.00 0.00 0.00 89 1017.5
20260507080503 13 51 0.0 1.6 0.00 0.00 0.00 88 1017.4
20260507080003 13 103 0.0 3.2 0.00 0.00 0.00 88 1017.3
20260507075503 13 140 0.0 4.8 0.00 0.00 0.00 88 1017.3
20260507075004 13 123 0.0 4.8 0.00 0.00 0.00 87 1017.2
20260507074503 13 103 0.0 4.8 0.00 0.00 0.00 88 1017.1
20260507074004 13 105 1.6 3.2 0.00 0.00 0.00 88 1017.0
20260507073503 13 108 0.0 3.2 0.00 0.00 0.00 88 1017.0
20260507073004 13 118 0.0 3.2 0.00 0.00 0.00 89 1017.0
20260507072503 13 119 0.0 1.6 0.00 0.00 0.00 89 1016.9
20260507072004 13 87 0.0 8.0 0.00 0.00 0.00 89 1017.1
20260507071504 13 90 1.6 8.0 0.00 0.00 0.00 89 1017.1
20260507071003 13 131 0.0 4.8 0.00 0.00 0.00 89 1017.1
20260507070504 13 122 1.6 8.0 0.00 0.00 0.00 89 1017.2
20260507065503 13 97 0.0 4.8 0.00 0.00 0.00 88 1017.0
20260507065003 13 87 0.0 4.8 0.00 0.00 0.00 88 1017.1
20260507063503 13 55 0.0 8.0 0.00 0.00 0.00 87 1017.0
20260507063003 13 88 0.0 8.0 0.00 0.00 0.00 87 1017.1
20260507062503 13 81 0.0 4.8 0.00 0.00 0.00 87 1017.1
20260507062004 13 84 1.6 6.4 0.00 0.00 0.00 87 1016.9
20260507061003 13 118 0.0 8.0 0.00 0.00 0.00 87 1016.9
20260507060504 13 111 0.0 4.8 0.00 0.00 0.00 86 1016.9
20260507060004 13 97 0.0 4.8 0.00 0.00 0.00 86 1016.8
20260507055503 14 126 0.0 1.6 0.00 0.00 0.00 85 1017.0
20260507055004 14 112 0.0 4.8 0.00 0.00 0.00 85 1017.0
20260507054504 14 111 1.6 4.8 0.00 0.00 0.00 85 1016.9
20260507054003 14 103 1.6 6.4 0.00 0.00 0.00 84 1016.8
20260507052503 14 89 0.0 6.4 0.00 0.00 0.00 83 1017.1
20260507052003 14 88 1.6 9.7 0.00 0.00 0.00 83 1017.1
20260507051504 14 98 1.6 9.7 0.00 0.00 0.00 83 1017.1
20260507051003 14 117 0.0 9.7 0.00 0.00 0.00 83 1017.0
20260507050503 15 99 1.6 9.7 0.00 0.00 0.00 83 1017.1
20260507050004 15 89 1.6 6.4 0.00 0.00 0.00 82 1017.1
20260507045504 15 85 1.6 8.0 0.00 0.00 0.00 82 1017.1
20260507045003 15 103 1.6 8.0 0.00 0.00 0.00 82 1017.2
20260507044501 15 104 1.6 8.0 0.00 0.00 0.00 82 1017.1
20260507044001 15 95 1.6 6.4 0.00 0.00 0.00 83 1017.2
20260507043501 15 90 1.6 6.4 0.00 0.00 0.00 82 1017.2
20260507043001 15 82 1.6 6.4 0.00 0.00 0.00 82 1017.3
20260507042502 15 76 1.6 6.4 0.00 0.00 0.00 83 1017.5
20260507042001 15 87 1.6 6.4 0.00 0.00 0.00 83 1017.4
20260507041501 15 71 1.6 6.4 0.00 0.00 0.00 83 1017.4
20260507041002 15 64 1.6 4.8 0.00 0.00 0.00 82 1017.4
20260507040501 15 90 0.0 4.8 0.00 0.00 0.00 83 1017.6
20260507040001 15 73 1.6 4.8 0.00 0.00 0.00 83 1017.6
20260507035501 15 78 1.6 6.4 0.00 0.00 0.00 83 1017.5
20260507035001 15 91 1.6 6.4 0.00 0.00 0.00 83 1017.5
20260507034501 15 84 1.6 6.4 0.00 0.00 0.00 83 1017.4
20260507034001 15 75 1.6 6.4 0.00 0.00 0.00 83 1017.4
20260507033001 15 40 1.6 4.8 0.00 0.00 0.00 83 1017.4
20260507032501 15 61 1.6 8.0 0.00 0.00 0.00 83 1017.2
20260507032001 15 104 1.6 9.7 0.00 0.00 0.00 84 1017.1
20260507031501 15 90 1.6 9.7 0.00 0.00 0.00 84 1017.1
20260507030501 15 103 0.0 3.2 0.00 0.00 0.00 84 1016.9
20260507030002 15 105 0.0 3.2 0.00 0.00 0.00 84 1016.7
20260507025002 15 89 0.0 3.2 0.00 0.00 0.00 84 1016.7
20260507024002 15 89 0.0 4.8 0.00 0.00 0.00 85 1016.6
20260507023501 15 40 0.0 4.8 0.00 0.00 0.00 85 1016.5
20260507022502 15 74 1.6 4.8 0.00 0.00 0.00 85 1016.3
20260507022001 15 69 0.0 6.4 0.00 0.00 0.00 86 1016.3
20260507020501 15 92 1.6 4.8 0.00 0.00 0.00 86 1015.9
20260507020002 15 96 1.6 4.8 0.00 0.00 0.00 86 1015.8
20260507015501 15 79 1.6 4.8 0.00 0.00 0.00 86 1015.7
20260507015001 15 80 1.6 4.8 0.00 0.00 0.00 86 1015.6
20260507014502 15 94 1.6 4.8 0.00 0.00 0.00 86 1015.5
20260507013502 15 119 0.0 1.6 0.00 0.00 0.00 86 1015.3
20260507013001 15 110 0.0 6.4 0.00 0.00 0.00 86 1015.2
20260507012502 15 113 0.0 6.4 0.00 0.00 0.00 86 1015.1
20260507012001 15 129 0.0 6.4 0.00 0.00 0.00 86 1015.0
20260507011502 15 87 0.0 4.8 0.00 0.00 0.00 86 1014.9
20260507011002 15 67 0.0 4.8 0.00 0.00 0.00 86 1014.7
20260507010502 15 65 0.0 3.2 0.00 0.00 0.00 86 1014.7
20260507010002 15 84 0.0 8.0 0.00 0.00 0.00 86 1014.8
20260507005502 15 77 1.6 8.0 0.00 0.00 0.00 86 1014.9
20260507005002 15 75 0.0 4.8 0.00 0.00 0.00 86 1014.7
20260507004501 15 98 0.0 3.2 0.00 0.00 0.00 86 1014.8
20260507003502 15 103 0.0 3.2 0.00 0.05 0.00 85 1014.8
20260507003002 15 96 0.0 3.2 0.00 0.05 0.00 85 1014.5
20260507002501 15 84 1.6 6.4 0.00 0.08 0.00 85 1014.4
20260507002002 15 88 0.0 6.4 0.00 0.10 0.00 85 1014.4
20260507001503 15 105 0.0 4.8 0.00 0.10 0.00 85 1014.4
20260507001002 15 110 0.0 4.8 0.00 0.10 0.00 85 1014.5
20260507000501 15 79 0.0 3.2 0.00 0.10 0.00 84 1014.3
20260507000002 15 40 0.0 3.2 0.00 0.10 0.00 85 1014.2
20260506235501 15 41 0.0 3.2 0.00 0.10 0.00 84 1014.1
20260506234002 15 79 0.0 3.2 0.00 0.10 0.00 84 1014.3
20260506233501 15 78 0.0 3.2 0.00 0.10 0.00 83 1014.3
20260506231501 15 105 0.0 3.2 0.00 0.10 0.00 83 1014.0
20260506230502 15 97 1.6 9.7 0.00 0.10 0.00 83 1014.0
20260506230002 15 92 1.6 9.7 0.00 0.10 0.00 83 1013.7
20260506225502 15 66 0.0 3.2 0.00 0.10 0.00 83 1013.8
20260506225001 15 83 1.6 3.2 0.00 0.10 0.00 83 1013.9
20260506224502 15 97 1.6 3.2 0.00 0.10 0.00 82 1013.9
20260506224001 16 92 0.0 3.2 0.00 0.10 0.00 83 1013.7
20260506223502 16 74 0.0 3.2 0.00 0.10 0.00 83 1013.8
20260506222502 16 80 0.0 3.2 0.00 0.10 0.00 82 1013.7
20260506222002 16 84 0.0 3.2 0.00 0.10 0.00 82 1013.7
20260506221502 16 69 0.0 3.2 0.00 0.10 0.00 82 1013.5
20260506221002 16 41 1.6 4.8 0.00 0.10 0.00 82 1013.4
20260506220502 16 33 1.6 4.8 0.00 0.10 0.00 81 1013.4
20260506220002 16 56 1.6 3.2 0.00 0.10 0.00 81 1013.1
20260506215502 16 41 1.6 4.8 0.00 0.10 0.00 81 1013.3
20260506215001 16 7 1.6 4.8 0.00 0.10 0.00 81 1013.2
20260506214502 16 334 0.0 3.2 0.00 0.10 0.00 80 1013.3
20260506214001 16 295 0.0 1.6 0.00 0.10 0.00 81 1013.4
20260506213502 16 59 0.0 3.2 0.00 0.10 0.00 80 1013.4
20260506213001 16 89 0.0 3.2 0.00 0.10 0.00 80 1013.4
20260506212502 16 97 0.0 3.2 0.00 0.10 0.00 80 1013.4
20260506211502 16 119 0.0 3.2 0.00 0.10 0.00 80 1013.5
20260506211002 16 113 0.0 3.2 0.00 0.10 0.00 79 1013.5
20260506210002 16 322 0.0 3.2 0.00 0.10 0.00 80 1013.5
20260506205002 16 79 1.6 3.2 0.00 0.10 0.00 79 1013.9
20260506204503 16 80 1.6 6.4 0.00 0.10 0.00 79 1013.7
20260506204002 16 96 0.0 6.4 0.00 0.10 0.00 79 1013.8
20260506203502 16 347 1.6 4.8 0.00 0.10 0.00 80 1013.8
20260506203002 16 283 1.6 4.8 0.00 0.10 0.00 79 1013.8
20260506200503 16 230 0.0 3.2 0.00 0.10 0.00 81 1014.4
20260506200003 16 278 0.0 3.2 0.00 0.10 0.00 80 1014.5
20260506195002 16 320 1.6 6.4 0.00 0.10 0.00 80 1014.4
20260506194502 16 8 1.6 6.4 0.00 0.10 0.00 81 1014.1
20260506194002 15 45 1.6 3.2 0.00 0.10 0.00 82 1013.7
20260506193502 15 110 0.0 3.2 0.00 0.10 0.00 84 1013.7
20260506193003 15 124 0.0 3.2 0.00 0.10 0.00 84 1013.9
20260506192502 14 140 0.0 3.2 0.00 0.10 0.00 84 1014.2
20260506192002 14 61 1.6 6.4 0.00 0.10 0.00 83 1014.7
20260506191502 14 352 1.6 6.4 0.00 0.10 0.00 83 1014.9
20260506191002 15 265 0.0 3.2 0.00 0.10 0.00 83 1014.8
20260506190502 15 264 0.0 3.2 0.00 0.10 0.00 83 1014.4
20260506185502 15 274 0.0 1.6 0.00 0.10 0.00 83 1014.1
20260506185002 15 272 0.0 1.6 0.00 0.10 0.00 82 1014.2
20260506184002 15 124 0.0 12.9 0.00 0.10 0.00 83 1014.2
20260506183503 15 112 0.0 3.2 0.00 0.10 0.00 84 1014.1
20260506183002 15 159 1.6 4.8 0.00 0.10 0.00 83 1014.2
20260506182502 14 79 1.6 6.4 0.00 0.10 0.00 83 1013.8
20260506181502 14 13 1.6 4.8 0.00 0.10 0.00 84 1013.4
20260506181003 14 22 1.6 6.4 0.00 0.10 0.00 85 1012.9
20260506180502 14 26 1.6 6.4 0.00 0.10 0.00 85 1012.9
20260506180002 14 25 3.2 8.0 0.00 0.10 0.00 85 1012.8
20260506175002 14 53 1.6 4.8 0.00 0.10 0.00 85 1012.9
20260506174502 14 48 1.6 4.8 0.00 0.10 0.00 85 1013.3
20260506173503 13 66 1.6 6.4 0.00 0.10 0.00 85 1013.6
20260506173003 13 91 1.6 4.8 0.00 0.10 0.00 86 1013.8
20260506172502 13 98 0.0 4.8 0.00 0.10 0.00 86 1014.3
20260506172002 13 83 0.0 3.2 0.00 0.10 0.00 86 1014.9
20260506171502 13 73 1.6 3.2 0.00 0.10 0.00 85 1014.7
20260506171003 13 201 1.6 4.8 0.00 0.10 0.00 85 1014.8
20260506170502 13 227 1.6 4.8 0.00 0.10 0.00 85 1014.8
20260506170003 13 60 1.6 4.8 0.00 0.10 0.00 85 1014.3
20260506165502 14 54 1.6 4.8 0.00 0.10 0.00 84 1013.4
20260506165003 14 59 1.6 4.8 0.00 0.10 0.00 83 1013.7
20260506164502 14 79 1.6 4.8 0.00 0.10 0.00 83 1014.0
20260506164003 15 60 1.6 6.4 0.00 0.10 0.00 83 1014.1
20260506163502 15 35 1.6 8.0 0.00 0.10 0.00 83 1014.2
20260506163002 15 67 1.6 8.0 0.00 0.10 0.00 85 1014.2
20260506162503 14 24 1.6 6.4 0.00 0.10 0.00 85 1014.1
20260506162002 14 344 0.0 4.8 0.00 0.10 0.00 87 1014.3
20260506161502 13 22 0.0 6.4 0.00 0.10 0.00 87 1014.4
20260506160502 13 111 0.0 1.6 0.00 0.10 0.00 88 1014.5
20260506160003 13 111 0.0 1.6 0.00 0.10 0.00 88 1014.9
20260506155502 13 111 0.0 1.6 0.00 0.10 0.00 87 1014.6
20260506155003 13 117 0.0 6.4 0.00 0.10 0.00 87 1014.8
20260506153002 13 278 1.6 4.8 0.00 0.10 0.00 83 1014.9
20260506152002 13 308 1.6 8.0 0.00 0.10 0.00 83 1016.2
20260506151002 13 80 0.0 3.2 0.00 0.10 0.00 84 1015.1
20260506150502 13 36 1.6 4.8 0.00 0.10 0.00 84 1014.6
20260506145502 13 80 0.0 3.2 0.00 0.10 0.00 84 1014.5
20260506145003 13 18 1.6 3.2 0.00 0.10 0.00 84 1014.5
20260506144502 13 6 1.6 4.8 0.00 0.10 0.00 84 1014.5
20260506144002 13 21 1.6 4.8 0.00 0.10 0.00 84 1014.1
20260506143003 13 44 0.0 3.2 0.00 0.10 0.00 83 1014.5
20260506142503 13 24 0.0 3.2 0.00 0.10 0.00 84 1014.1
20260506142002 12 4 1.6 4.8 0.00 0.10 0.00 83 1014.1
20260506141503 13 8 1.6 4.8 0.00 0.10 0.00 84 1014.1
20260506140503 12 24 1.6 3.2 0.00 0.10 0.00 84 1013.9
20260506140003 13 43 0.0 3.2 0.00 0.10 0.00 84 1013.7
20260506135503 13 40 0.0 3.2 0.00 0.10 0.00 84 1013.7
20260506134503 12 54 1.6 4.8 0.00 0.10 0.00 84 1013.8
20260506133502 13 41 1.6 3.2 0.00 0.10 0.00 85 1013.7
20260506132502 13 296 0.0 3.2 0.00 0.10 0.00 84 1013.4
20260506132003 13 293 1.6 3.2 0.00 0.10 0.00 84 1013.2
20260506131502 13 330 1.6 3.2 0.00 0.10 0.00 84 1013.2
20260506131003 13 46 1.6 3.2 0.00 0.10 0.00 84 1013.4
20260506130503 13 37 1.6 4.8 0.00 0.10 0.00 83 1013.5
20260506130003 13 63 0.0 4.8 0.00 0.10 0.00 84 1013.3
20260506125503 13 159 0.0 3.2 0.00 0.10 0.00 83 1013.3
20260506125003 13 159 0.0 3.2 0.00 0.10 0.00 83 1013.1
20260506124503 13 160 0.0 3.2 0.00 0.10 0.00 83 1013.0
20260506122002 13 40 1.6 4.8 0.00 0.10 0.00 81 1012.8
20260506121502 13 359 1.6 4.8 0.00 0.10 0.00 81 1012.8
20260506120503 13 35 1.6 6.4 0.00 0.10 0.00 81 1012.7
20260506120002 13 28 1.6 6.4 0.00 0.10 0.00 80 1012.6
20260506115503 13 29 1.6 3.2 0.00 0.10 0.00 80 1012.4
20260506115003 13 39 1.6 4.8 0.00 0.10 0.00 80 1012.3
20260506114502 13 61 0.0 4.8 0.00 0.10 0.00 80 1012.1
20260506114003 13 55 1.6 3.2 0.00 0.10 0.00 80 1012.0
20260506113503 13 47 1.6 6.4 0.00 0.10 0.00 80 1011.8
20260506113003 13 39 1.6 6.4 0.00 0.10 0.00 79 1011.8
20260506112503 13 21 1.6 6.4 0.00 0.10 0.00 79 1012.1
20260506111003 14 68 1.6 3.2 0.00 0.10 0.00 79 1011.7
20260506110503 14 45 0.0 3.2 0.00 0.10 0.00 78 1011.7
20260506110004 14 2 1.6 3.2 0.00 0.10 0.00 78 1011.5
20260506105503 14 11 1.6 3.2 0.00 0.10 0.00 78 1011.5
20260506105003 14 56 0.0 3.2 0.00 0.10 0.00 78 1011.3
20260506104503 14 97 0.0 3.2 0.00 0.10 0.00 78 1011.2
20260506103004 14 336 1.6 3.2 0.00 0.10 0.00 78 1011.0
20260506102503 14 283 0.0 3.2 0.00 0.10 0.00 78 1010.8
20260506102002 14 280 0.0 3.2 0.00 0.10 0.00 78 1010.6
20260506101503 15 325 1.6 3.2 0.00 0.10 0.00 78 1010.6
20260506101003 15 60 0.0 3.2 0.00 0.10 0.00 78 1010.4
20260506100503 15 47 0.0 3.2 0.00 0.10 0.00 78 1010.5
20260506100004 15 11 0.0 3.2 0.00 0.10 0.00 78 1010.5
20260506095503 15 325 0.0 3.2 0.00 0.10 0.00 78 1010.6
20260506094503 15 43 0.0 3.2 0.00 0.10 0.00 77 1010.4
20260506094003 15 56 0.0 6.4 0.00 0.10 0.00 77 1010.4
20260506093503 15 221 0.0 6.4 0.00 0.10 0.00 78 1010.5
20260506093003 15 225 0.0 1.6 0.00 0.10 0.00 78 1010.5
20260506092503 15 224 0.0 1.6 0.00 0.10 0.00 78 1010.4
20260506091503 15 238 0.0 1.6 0.00 0.10 0.00 78 1010.3
20260506090003 15 109 0.0 1.6 0.00 0.10 0.00 78 1010.1